TimeCST,TemperatureF,Dew PointF,Humidity,Sea Level PressureIn,VisibilityMPH,Wind Direction,Wind SpeedMPH,Gust SpeedMPH,PrecipitationIn,Events,Conditions,WindDirDegrees,DateUTC
12:53 AM,54.0,48.0,80,29.77,9.0,ESE,6.9,-,N/A,,Overcast,110,2012-11-10 06:53:00
1:53 AM,53.1,48.9,86,29.75,9.0,ESE,8.1,-,N/A,,Clear,110,2012-11-10 07:53:00
2:53 AM,54.0,50.0,86,29.73,9.0,ESE,9.2,-,N/A,,Clear,120,2012-11-10 08:53:00
3:53 AM,55.0,52.0,89,29.70,9.0,ESE,10.4,-,N/A,,Clear,120,2012-11-10 09:53:00
4:53 AM,55.0,52.0,89,29.69,9.0,ESE,8.1,-,N/A,,Clear,120,2012-11-10 10:53:00
5:53 AM,54.0,52.0,93,29.68,9.0,SE,5.8,-,N/A,,Clear,130,2012-11-10 11:53:00
6:53 AM,52.0,51.1,97,29.68,7.0,SE,6.9,-,N/A,,Clear,140,2012-11-10 12:53:00
7:53 AM,55.9,54.0,93,29.68,9.0,SE,8.1,-,N/A,,Clear,140,2012-11-10 13:53:00
8:53 AM,60.1,55.9,86,29.67,10.0,South,9.2,-,N/A,,Clear,170,2012-11-10 14:53:00
9:53 AM,69.1,57.0,65,29.64,10.0,South,16.1,24.2,N/A,,Clear,190,2012-11-10 15:53:00
10:53 AM,73.0,55.9,55,29.64,10.0,SSW,19.6,33.4,N/A,,Clear,210,2012-11-10 16:53:00
11:53 AM,75.9,55.0,48,29.62,10.0,SSW,26.5,36.8,N/A,,Clear,210,2012-11-10 17:53:00
12:53 PM,77.0,55.9,48,29.61,10.0,SSW,23.0,34.5,N/A,,Clear,200,2012-11-10 18:53:00
1:53 PM,72.0,55.9,57,29.60,10.0,South,18.4,28.8,N/A,,Mostly Cloudy,180,2012-11-10 19:53:00
2:53 PM,73.0,55.9,55,29.57,10.0,South,16.1,29.9,N/A,,Partly Cloudy,170,2012-11-10 20:53:00
3:53 PM,72.0,57.0,59,29.58,10.0,South,12.7,23.0,N/A,,Clear,170,2012-11-10 21:53:00
4:53 PM,70.0,57.0,63,29.59,10.0,South,20.7,29.9,N/A,,Clear,180,2012-11-10 22:53:00
5:53 PM,69.1,55.9,63,29.59,10.0,South,18.4,28.8,N/A,,Scattered Clouds,170,2012-11-10 23:53:00
6:53 PM,68.0,54.0,61,29.60,10.0,South,20.7,29.9,N/A,,Scattered Clouds,180,2012-11-11 00:53:00
7:53 PM,66.9,52.0,59,29.56,10.0,South,18.4,24.2,N/A,,Clear,170,2012-11-11 01:53:00
8:53 PM,66.0,51.1,59,29.56,10.0,South,21.9,29.9,N/A,,Clear,190,2012-11-11 02:53:00
10:53 PM,66.9,51.1,57,29.60,10.0,SSW,20.7,29.9,N/A,,Clear,200,2012-11-11 04:53:00
11:53 PM,66.9,51.1,57,29.62,10.0,SSW,18.4,26.5,N/A,,Overcast,200,2012-11-11 05:53:00